Gale Warning
click here for details
SBYC BurgeeSandy Bay Yacht Club
Weather Center


NOAA NWS Hourly Roundups by Site

NOAA NWS Hourly Roundups by Site

Regional Weather Roundup for Boston, MA

To Select Another Site Choose from List
Select Site:  

455
ASUS41 KBOX 140010
RWRBOX

REGIONAL WEATHER ROUNDUP
NATIONAL WEATHER SERVICE BOSTON/NORTON MA
700 PM EST TUE NOV 13 2018

NOTE:  "FAIR" INDICATES FEW OR NO CLOUDS BELOW 12,000 FEET WITH NO
SIGNIFICANT WEATHER AND/OR OBSTRUCTIONS TO VISIBILITY.

MAZALL-140100-
EASTERN MASSACHUSETTS

CITY           SKY/WX    TMP DP  RH WIND       PRES   REMARKS
BOSTON         CLOUDY    46  35  65 NW18G26   29.83R
6HR MIN TEMP:  46; 6HR MAX TEMP:  54; 6HR PCP:  0.01;

BEVERLY        MOCLDY    43  35  73 W10G23    29.80R
LAWRENCE       CLOUDY    44  35  70 W13G23    29.83R
BEDFORD        FAIR      43  33  68 NW18G26   29.83R
BLUE HILL        N/A     40  36  86 NW15G37   29.80R WCI  32
NORWOOD        CLOUDY    46  37  71 W12G22    29.84R
MARSHFIELD     FAIR      46  41  81 W9G18     29.82R
PLYMOUTH       MOCLDY    49  38  65 W13       29.82R
TAUNTON        CLOUDY    46  38  73 W8        29.85R
NEW BEDFORD    CLOUDY    46  42  86 W12       29.84R
$$

MAZALL-140100-
CAPE COD AND THE ISLANDS

CITY           SKY/WX    TMP DP  RH WIND       PRES   REMARKS
FALMOUTH       CLOUDY    45  39  81 NW16G23   29.83R
HYANNIS        FAIR      48  43  82 W12G22    29.80R
CHATHAM        MOCLDY    47  50 100 NW14G23   29.80R
PROVINCETOWN   MOCLDY    47  41  80 NW20G30   29.80R
NANTUCKET      FAIR      49  46  90 W13       29.81R
MARTHAS VNYRD  CLOUDY    48  43  82 NW9       29.83R
$$

MAZALL-140100-
CENTRAL AND WESTERN MASSACHUSETTS

CITY           SKY/WX    TMP DP  RH WIND       PRES   REMARKS
WORCESTER      MOCLDY    37  34  89 W14G20    29.84R WCI  28
6HR MIN TEMP:  37; 6HR MAX TEMP:  43; 6HR PCP: TRACE;

FITCHBURG      MOCLDY    40  33  76 NW17G23   29.86R WCI  31
ORANGE         CLOUDY    41  33  73 W9        29.89R
SPRINGFIELD    NOT AVBL
WESTFIELD      CLOUDY    41  32  70 NW9G20    29.93R
NORTH ADAMS    CLOUDY    37  33  85 W21G35    29.93R WCI  26
PITTSFIELD     CLOUDY    36  31  82 W22G30    29.92R WCI  25
$$

RIZALL-140100-
RHODE ISLAND

CITY           SKY/WX    TMP DP  RH WIND       PRES   REMARKS
PROVIDENCE     CLOUDY    45  36  70 NW14      29.87R
6HR MIN TEMP:  45; 6HR MAX TEMP:  58; 6HR PCP:  0.01;

NEWPORT        CLOUDY    46  38  73 NW14G20   29.86R
BLOCK ISLAND   MOCLDY   N/A N/A N/A NW16G25   29.90
SMITHFIELD     CLOUDY    42  37  82 NW12      29.86R
WESTERLY       CLOUDY    46  37  71 NW12G20   29.91R
$$

CTZALL-140100-
CONNECTICUT

CITY           SKY/WX    TMP DP  RH WIND       PRES   REMARKS
BRADLEY INTL   CLOUDY    42  33  70 NW9G23    29.93R
6HR MIN TEMP:  41; 6HR MAX TEMP:  44; 6HR PCP:  0.01;

HARTFORD       CLOUDY    43  34  70 NW9G16    29.94R
BRIDGEPORT     CLOUDY    44  36  73 W8        29.98R
DANBURY        CLOUDY    40  36  86 W3        29.98R
GROTON         CLOUDY    45  35  68 NW15G21   29.92R
NEW HAVEN      CLOUDY    45  36  70 NW12      29.96R
CHESTER        CLOUDY    43  34  70 NW9G21    29.93R
MERIDEN        CLOUDY    43  32  65 NW15G24   29.95R
WILLIMANTIC    CLOUDY    42  35  76 W8G17     29.92R
OXFORD         CLOUDY    40  34  79 NW10G17   29.95R
$$

MEZ002-015-021-024-NHZ003-005-008-011-012-014-VTZ005-008-140100-
NORTHERN NEW ENGLAND

CITY           SKY/WX    TMP DP  RH WIND       PRES   REMARKS
PORTLAND ME    CLOUDY    40  38  93 W7        29.75R
6HR MIN TEMP:  39; 6HR MAX TEMP:  43; 6HR PCP:  0.12;

BANGOR ME      LGT RAIN  37  36  96 NW18      29.65R FOG     WCI  27
CONCORD NH     FAIR      38  34  85 W7        29.83R
MANCHESTER NH  CLOUDY    42  34  73 W10       29.82R
NASHUA NH      CLOUDY    41  35  79 NW16G23   29.85R
PORTSMOUTH NH  MOCLDY    41  35  80 W12G20    29.77R
JAFFREY NH     CLOUDY    37  34  89 W9G21     29.85R WCI  30
KEENE NH       CLOUDY    39  34  82 VRB3      29.88R
BURLINGTON VT  CLOUDY    33  25  72 N13G23    29.96R WCI  24
MT. WASHINGTON BLWGSNOW  16  16 100 NW75G83     N/A  VSB 0   WCI -12
$$

NYZ052-076-140100-
EASTERN NEW YORK

CITY           SKY/WX    TMP DP  RH WIND       PRES   REMARKS
ALBANY         CLOUDY    40  31  70 W18G30    29.99R WCI  31
6HR MIN TEMP:  37; 6HR MAX TEMP:  40; 6HR PCP: TRACE;

NEW YORK CITY  CLOUDY    46  34  62 NW16G23   30.02R
6HR MIN TEMP:  46; 6HR MAX TEMP:  49;

$$

ANZALL-140100-
MARINE OBSERVATIONS

STATION/POSITION TIME  TEMP    WIND        PRES    VSBY  WAVE
                       AIR SEA DIR/SP/G                  HT/PER
                 (UTC) (F)     (DEG/KT/KT) (MB)    (MI)  (FT/S)
BOSTON BUOY      2350   46 51  290/ 23/ 27 1008.2R         4/ 4
BUZZARDS BAY     2300   48     310/ 24/ 26 1010.6R
NANTUCKET SOUND  2350   49 52  290/ 16/ 21 1009.5R         2/ 4
MASS BAY-STELLWA 2304   45 51  300/ 23/ 27 1006.8R  1 7/8  5/ 8
ISLE OF SHOALS   2300   43     290/ 25/ 28 1006.1R
S OF BLOCK IS    2343      56                N/A          11/10
$$

......................KEY.........................
  SKY/WX - SKY CONDITION/PRESENT WEATHER
  TMP    - TEMPERATURE IN FAHRENHEIT
  DWPT   - DEWPOINT IN FAHRENHEIT
  RH     - RELATIVE HUMIDITY IN PERCENT
  WIND   - DIRECTION AND SPEED IN MPH
  PRES   - MEAN SEA LEVEL PRESSURE IN INCHES OF HG
  WCI    - WIND CHILL INDEX
  VSB    - VISIBILITY IN MILES
  HX     - HEAT INDEX
  TC     - TEMPERATURE IN CELSIUS
  VRB    - VARIABLE WIND DIRECTION
  N/A    - NOT AVAILABLE



 

View Past Reports for Boston, MA.

Products Courtesy of NOAA-NWS
NWS Information Parsing Script by Ken True at Saratoga Weather - Script by SE Lincoln Weather.

 



home

Copyright © Sandy Bay Yacht Club. All rights reserved.